Regional Weather Roundup
Issued by NWS

Home | Current Version | Previous Version | Graphics & Text | Print | Product List | Glossary On
Versions: 1 2 3 4 5 6 7 8 9 10 11 12 13 14 15 16 17 18 19 20 21 22 23 24 25 26 27 28 29 30 31 32 33 34 35 36 37 38 39 40 41 42 43 44 45 46 47 48 49 50
900
ASUS43 KMPX 081510
RWRMN
WEATHER ROUNDUP FOR MINNESOTA
NATIONAL WEATHER SERVICE TWIN CITIES/CHANHASSEN MN
900 AM CST THU DEC 08 2016


NOTE: "FAIR" INDICATES FEW OR NO CLOUDS BELOW 12,000 FEET WITH NO
SIGNIFICANT WEATHER AND/OR OBSTRUCTIONS TO VISIBILITY. N/A MEANS
CURRENT SKY AND/OR WEATHER CONDITIONS ARE NOT AVAILABLE.

MNZ060>063-068>070-081600-
   Twin Cities Metro

CITY           SKY/WX    TMP DP  RH WIND       PRES   REMARKS
TWIN CITIES    MOSUNNY   20  14  77 NW16      30.31R WCI   6
ST PAUL        SUNNY     20  15  81 NW16G23   30.31R WCI   6
CRYSTAL        SUNNY     21  13  71 NW17G23   30.30R WCI   7
BLAINE         MOSUNNY   19  16  86 W13       30.28R WCI   7
LAKEVILLE      PTSUNNY   18  16  93 W13G18    30.31R WCI   4
EDEN PRAIRIE   CLOUDY    21  14  74 W13       30.31R WCI   9
SOUTH ST PAUL  SUNNY     22  15  74 NW14G21   30.30R WCI   9
LAKE ELMO      FAIR      21  16  79 NW13      30.29R WCI   9
$$
MNZ001>005-007-008-013>017-022>024-027-028-081600-
   Northwest Minnesota

CITY           SKY/WX    TMP DP  RH WIND       PRES   REMARKS
BEMIDJI        LGT SNOW  14  10  85 NW15      30.31R WCI  -1
HALLOCK        CLOUDY    16  12  86 NW20G25   30.45R WCI  -1
ROSEAU         CLOUDY    18  12  79 N10       30.38R WCI   6
WARROAD        CLOUDY    18  12  79 NW10G17   30.36R WCI   6
THIEF RVR FALL LGT SNOW  14  11  87 NW20      30.40R FOG     WCI  -3
CROOKSTON      LGT SNOW  14  12  92 N21       30.45R VSB 3/4 WCI  -4
FOSSTON        LGT SNOW  10   9  92 NW14      30.38R WCI  -5
DETROIT LAKES  LGT SNOW  16  12  86 NW16G26   30.38R WCI   0
MOORHEAD       MIX PCPN  16  10  79 NW21G28   30.46R WCI  -2
PARK RAPIDS    CLOUDY    14   7  73 NW12      30.32R WCI   0
$$
MNZ006-009>011-018-025>026-081600-
   North Central Minnesota

CITY           SKY/WX    TMP DP  RH WIND       PRES   REMARKS
BAUDETTE       LGT SNOW  20  15  81 NW16G23   30.31R WCI   6
FLAG ISLAND    CLOUDY    18  12  79 N17G23    30.35R WCI   2
INTL FALLS     LGT SNOW  18  14  84 NW10      30.26R FOG     WCI   6
WASKISH        MOCLDY    18  14  86 NW13      30.31R WCI   4
BIG FORK       FLURRIES  19  16  86 NW5       30.25R WCI  13
LONGVILLE      FLURRIES  18  14  86 NW12G21   30.28R WCI   5
GRAND RAPIDS   FLURRIES  17  14  88 NW12      30.26R WCI   4
CRANE LAKE     FLURRIES  19  18  93 N7        30.23R WCI  10
ORR            MIX PCPN  18  14  86 NW9       30.20R WCI   6
COOK           MOCLDY    18  14  86 W6        30.21R WCI   9
$$
MNZ012-019>021-037-081600-
   Northeast Minnesota

CITY           SKY/WX    TMP DP  RH WIND       PRES   REMARKS
DULUTH         MOCLDY    19  15  84 NW15G25   30.17R WCI   5
ELY            MOCLDY    18  16  93 NW10G20   30.16R WCI   6
HIBBING        LGT SNOW  17  13  84 NW15      30.21R FOG     WCI   2
EVELETH        MOCLDY    20  15  82 NW12G18   30.20R WCI   8
DULUTH HARBOR  PTCLDY    25  18  74 NW12G20   30.24R WCI  14
TWO HARBORS    PTCLDY    25  18  74 NW7       30.15R WCI  17
SILVER BAY     CLOUDY    21  16  79 NW7       30.14R WCI  13
GRAND MARAIS     N/A     24  16  71 NW12G21   30.13R WCI  13
G MARAIS ARPRT CLOUDY    16  10  79 NW8G20    30.07R HAZE    WCI   5
$$
MNZ029>031-032-039>041-046>048-054>057-064-081600-
   West Central Minnesota

CITY           SKY/WX    TMP DP  RH WIND       PRES   REMARKS
FERGUS FALLS   LGT SNOW  12  10  92 NW20      30.47R WCI  -6
WHEATON        CLOUDY    12   9  85 W16G25    30.49R WCI  -4
MORRIS         CLOUDY    12   9  85 NW24G30   30.42R WCI  -8
ALEXANDRIA     LGT SNOW  15  11  83 NW20G28   30.37R FOG     WCI  -2
ELBOW LAKE     LGT SNOW  13  10  90 NW21G28   30.42R WCI  -6
WADENA         FLURRIES  14   9  79 NW14      30.34R WCI  -1
GLENWOOD       LGT SNOW  14  10  85 NW17G23   30.37R WCI  -3
APPLETON       CLOUDY    12   9  85 NW20G25   30.46R WCI  -6
BENSON         CLOUDY    14   9  79 N20G29    30.42R WCI  -3
ORTONVILLE     CLOUDY    10   5  79 NW18G26   30.47R WCI  -8
MADISON        FLURRIES  14   9  79 NW18G25   30.48R WCI  -3
WILLMAR        LGT SNOW  16  12  86 NW15      30.41R WCI   1
$$
MNZ033>034-036-042>043-049>051-058-059-081600-
   Central Minnesota

CITY           SKY/WX    TMP DP  RH WIND       PRES   REMARKS
ST CLOUD       PTCLDY    19  14  81 NW16      30.32R WCI   4
PAYNESVILLE    CLOUDY    17  15  93 NW10      30.36R WCI   5
AITKIN         MOCLDY    21  12  68 NW8       30.26R WCI  12
PINE RIVER     CLOUDY    18  12  79 NW8G16    30.33R WCI   7
BRAINERD       CLOUDY    18  12  77 NW12      30.30R WCI   5
STAPLES        LGT SNOW  16  10  79 NW14      30.33R WCI   1
LONG PRAIRIE   FLURRIES  18  12  79 W16       30.34R WCI   3
LITTLE FALLS   CLEAR     19  12  73 NW9G18    30.32R WCI   9
LITCHFIELD     CLEAR     18  12  79 NW16G23   30.36R WCI   3
BUFFALO        CLEAR     21  14  76 W13G18    30.33R WCI   8
MAPLE LAKE     CLEAR     22  17  81 NW13G20   30.33R WCI  10
HUTCHINSON     CLOUDY    18  14  82 W15G21    30.36R WCI   4
$$
MNZ037-044-045-052-053-081600-
   East Central Minnesota

CITY           SKY/WX    TMP DP  RH WIND       PRES   REMARKS
PRINCETON      CLEAR     21  16  79 W13       30.30R WCI   9
MORA           FLURRIES  21  14  73 N8        30.29R WCI  12
CAMBRIDGE      FLURRIES  21  12  68 NW9       30.27R WCI  11
RUSH CITY      CLOUDY    21  16  79 NW10      30.27R WCI  10
MOOSE LAKE     CLOUDY    21  14  73 NW9G17    30.23R WCI  11
HINCKLEY       FAIR      21  16  79 NW12G24   30.25R WCI   9
CLOQUET        FLURRIES  19  14  79 NW13G18   30.20R WCI   7
MCGREGOR       CLOUDY    21  16  79 NW14      30.26R WCI   8
$$
MNZ071>073-080-081-089-090-097-098-081600-
   Southwest Minnesota

CITY           SKY/WX    TMP DP  RH WIND       PRES   REMARKS
MONTEVIDEO     CLOUDY    12   9  85 N16G25    30.46R WCI  -4
GRANITE FALLS  MOCLDY    15  10  81 W20G30    30.47R WCI  -2
CANBY          MOCLDY    13   7  76 NW20G26   30.49R WCI  -5
MARSHALL       FLURRIES  13   7  77 NW26      30.45R WCI  -7
REDWOOD FALLS  FLURRIES  15   8  73 NW16G24   30.42R WCI  -1
OLIVIA         LGT SNOW  16  10  79 NW20G26   30.40R WCI  -1
PIPESTONE      CLEAR      9   3  78 NW16G22   30.46R WCI  -9
WINDOM         FLURRIES  12   9  85 NW20G28   30.41R WCI  -6
WORTHINGTON    CLEAR     10   5  80 NW20G30   30.44R WCI  -9
JACKSON        CLOUDY    12   7  79 NW21G26   30.41R WCI  -6
TRACY          CLOUDY    14   9  80 NW21G29   30.45R WCI  -4
SLAYTON        PTCLDY    10   6  82 NW21G26   30.44R WCI  -9
$$
MNZ065>067-074>077-082>085-091>093-081600-
   South Central Minnesota

CITY           SKY/WX    TMP DP  RH WIND       PRES   REMARKS
MANKATO        SUNNY     17  12  80 NW20G30   30.37R WCI   1
NEW ULM        FLURRIES  16  10  79 NW21      30.40R WCI  -2
ST JAMES       FLURRIES  14  10  85 W25       30.42R WCI  -5
FAIRMONT       FLURRIES  14   9  80 NW25      30.41R WCI  -5
GLENCOE        PTCLDY    19  16  87 W15       30.34R WCI   5
OWATONNA       CLOUDY    16  12  86 W16       30.32R WCI   0
WASECA         LGT SNOW  18  14  86 W16       30.36R WCI   3
ALBERT LEA     LGT SNOW  19  16  86 W15G26    30.33R WCI   5
$$
MNZ078>079-086>088-094>096-081600-
   Southeast Minnesota

CITY           SKY/WX    TMP DP  RH WIND       PRES   REMARKS
ROCHESTER      MIX PCPN  17  13  84 NW23G29   30.28R WCI  -1
RED WING       FLURRIES  19  14  79 W9        30.28R WCI   9
STANTON        CLOUDY    19  14  82 W10       30.30R WCI   7
DODGE CENTER   CLOUDY    16  12  86 W17G24    30.29R WCI   0
WINONA           N/A     21  16  79 NW8       30.29R WCI  12
AUSTIN         LGT SNOW  16  12  86 NW14G25   30.31R WCI   1
PRESTON        LGT SNOW  16  11  83 NW21      30.28R WCI  -2
$$
ABBREVIATIONS USED IN REMARKS
   TC - TEMPERATURES IN CELSIUS
  WCI - WIND CHILL INDEX
   HX - HEAT INDEX
  VSB - VISIBILITY
$$




USA.gov is the U.S. government's official web portal to all federal, state and local government web resources and services.